Date String (YYYY-MM-DD hh:mm:ss) UTC,Instrument flags,Ambient pressure (hPa),Sample flow (lpm),Bypass flow (lpm),Sample temperature (°C),Ambient temperature (°C),ASC tube jacket temperature (°C),LED temperature (°C),Box temperature (°C),Sample RH (%),Span deviation,Mass concentration (μg/m³),Mass concentration (μg/m³),Mass concentration (μg/m³)
DateTimeUTC,F1_M11,P_M11,Q1_M11,Q2_M11,T1_M11,T2_M11,T3_M11,T4_M11,T5_M11,U1_M11,ZSPAN_M11,X0_M11,X2_M11,X1_M11
2022-07-21 22:00:00,,0827.0,5.00,0.00,29.4,28.0,00.0,38.0,31.4,20.4,0000.0,0014.03,0005.52,0004.34
2022-07-21 22:01:00,,0826.9,5.00,0.00,29.4,27.3,00.0,37.9,31.3,19.7,0000.0,0013.84,0005.49,0004.33
2022-07-21 22:02:00,,0827.1,5.01,0.00,29.4,27.1,00.0,37.9,31.2,21.6,0000.0,0013.72,0005.50,0004.33
2022-07-21 22:03:00,,0826.9,4.99,0.00,29.3,27.2,00.0,37.9,31.1,23.8,0000.0,0013.10,0005.45,0004.31
2022-07-21 22:04:00,,0826.8,5.00,0.00,29.3,27.3,00.0,37.9,31.1,24.8,0000.0,0013.43,0005.45,0004.29
2022-07-21 22:05:00,,0827.0,5.00,0.00,29.3,27.5,00.0,38.0,31.1,24.1,0000.0,0013.51,0005.43,0004.23
2022-07-21 22:06:00,,0827.0,5.01,0.00,29.3,27.7,00.0,38.0,31.2,24.9,0000.0,0012.91,0005.37,0004.17
2022-07-21 22:07:00,,0827.0,4.99,0.00,29.3,27.9,00.0,38.0,31.3,25.2,0000.0,0013.04,0005.36,0004.11
2022-07-21 22:08:00,,0826.9,5.00,0.00,29.4,28.1,00.0,38.0,31.3,26.2,0000.0,0013.72,0005.31,0004.07
2022-07-21 22:09:00,,0826.9,5.01,0.00,29.4,27.9,00.0,38.0,31.3,25.0,0000.0,0014.62,0005.29,0004.04
2022-07-21 22:10:00,,0826.9,4.99,0.00,29.4,27.1,00.0,37.9,31.2,27.0,0000.0,0014.52,0005.31,0004.01
2022-07-21 22:11:00,,0826.8,5.00,0.00,29.3,26.9,00.0,37.9,31.1,27.3,0000.0,0014.08,0005.32,0003.98
2022-07-21 22:12:00,,0826.8,5.00,0.00,29.3,27.0,00.0,37.9,31.1,27.4,0000.0,0014.33,0005.37,0003.96
2022-07-21 22:13:00,,0827.1,5.00,0.00,29.2,27.1,00.0,37.9,31.1,27.3,0000.0,0014.39,0005.38,0003.93
2022-07-21 22:14:00,,0826.9,5.00,0.00,29.2,27.3,00.0,37.9,31.1,26.9,0000.0,0014.17,0005.43,0003.91
2022-07-21 22:15:00,,0826.8,5.01,0.00,29.2,27.5,00.0,37.9,31.1,27.1,0000.0,0013.95,0005.42,0003.90
2022-07-21 22:16:00,,0826.7,4.99,0.00,29.3,27.8,00.0,38.0,31.2,26.9,0000.0,0014.37,0005.43,0003.91
2022-07-21 22:17:00,,0826.7,5.00,0.00,29.3,28.0,00.0,38.0,31.3,26.1,0000.0,0014.44,0005.44,0003.92
2022-07-21 22:18:00,,0826.7,4.99,0.00,29.3,27.8,00.0,38.0,31.3,25.3,0000.0,0014.36,0005.40,0003.94
2022-07-21 22:19:00,,0826.7,5.00,0.00,29.3,27.1,00.0,37.9,31.2,24.5,0000.0,0013.79,0005.42,0003.96
2022-07-21 22:20:00,,0826.7,5.00,0.00,29.3,26.9,00.0,37.9,31.1,24.2,0000.0,0012.73,0005.40,0003.97
2022-07-21 22:21:00,,0826.7,4.99,0.00,29.2,26.9,00.0,37.9,31.0,24.1,0000.0,0012.91,0005.40,0003.98
2022-07-21 22:22:00,,0826.7,4.99,0.00,29.2,27.1,00.0,37.9,31.0,24.0,0000.0,0012.82,0005.45,0003.98
2022-07-21 22:23:00,,0826.7,4.99,0.00,29.2,27.2,00.0,37.9,31.0,23.4,0000.0,0012.86,0005.47,0004.00
2022-07-21 22:24:00,,0826.7,5.00,0.00,29.2,27.5,00.0,37.9,31.1,22.7,0000.0,0013.37,0005.51,0004.02
2022-07-21 22:25:00,,0826.7,5.01,0.00,29.2,27.7,00.0,37.9,31.1,22.3,0000.0,0014.01,0005.53,0004.05
2022-07-21 22:26:00,,0826.6,5.00,0.00,29.2,27.9,00.0,37.9,31.2,22.7,0000.0,0014.17,0005.56,0004.07
2022-07-21 22:27:00,,0826.6,4.99,0.00,29.3,28.0,00.0,37.9,31.3,23.4,0000.0,0013.83,0005.54,0004.07
2022-07-21 22:28:00,,0826.5,5.00,0.00,29.3,27.6,00.0,37.9,31.2,23.8,0000.0,0013.80,0005.58,0004.08
2022-07-21 22:29:00,,0826.5,5.01,0.00,29.3,27.0,00.0,37.8,31.1,24.0,0000.0,0013.97,0005.65,0004.10
2022-07-21 22:30:00,,0826.5,4.99,0.00,29.2,26.9,00.0,37.8,31.1,24.1,0000.0,0014.03,0005.67,0004.12
2022-07-21 22:31:00,,0826.5,5.00,0.00,29.2,27.0,00.0,37.8,31.0,24.6,0000.0,0015.18,0005.77,0004.13
2022-07-21 22:32:00,,0826.5,5.00,0.00,29.1,27.2,00.0,37.8,31.0,24.9,0000.0,0015.44,0005.84,0004.17
2022-07-21 22:33:00,,0826.5,5.00,0.00,29.1,27.4,00.0,37.9,31.0,26.1,0000.0,0016.52,0005.92,0004.20
2022-07-21 22:34:00,,0826.5,5.01,0.00,29.2,27.6,00.0,37.9,31.1,26.8,0000.0,0016.95,0006.02,0004.22
2022-07-21 22:35:00,,0826.5,5.00,0.00,29.2,27.8,00.0,37.9,31.2,27.0,0000.0,0016.62,0006.07,0004.23
2022-07-21 22:36:00,,0826.5,4.99,0.00,29.2,27.9,00.0,37.9,31.2,27.0,0000.0,0016.39,0006.10,0004.24
2022-07-21 22:37:00,,0826.5,5.00,0.00,29.3,27.6,00.0,37.9,31.2,26.3,0000.0,0017.24,0006.16,0004.26
2022-07-21 22:38:00,,0826.5,5.01,0.00,29.2,27.0,00.0,37.8,31.1,25.4,0000.0,0018.00,0006.28,0004.31
2022-07-21 22:39:00,,0826.5,4.99,0.00,29.2,26.8,00.0,37.8,31.0,25.5,0000.0,0018.02,0006.29,0004.33
2022-07-21 22:40:00,,0826.5,5.00,0.00,29.1,26.9,00.0,37.8,30.9,25.9,0000.0,0018.84,0006.32,0004.35
2022-07-21 22:41:00,,0826.5,5.00,0.00,29.1,27.1,00.0,37.8,30.9,24.5,0000.0,0019.14,0006.38,0004.37
2022-07-21 22:42:00,,0826.5,5.01,0.00,29.1,27.3,00.0,37.8,31.0,26.0,0000.0,0017.95,0006.36,0004.39
2022-07-21 22:43:00,,0826.5,4.98,0.00,29.1,27.5,00.0,37.8,31.0,25.2,0000.0,0017.13,0006.31,0004.41
2022-07-21 22:44:00,,0826.5,5.01,0.00,29.1,27.7,00.0,37.9,31.1,24.5,0000.0,0017.16,0006.20,0004.41
2022-07-21 22:45:00,,0826.5,5.00,0.00,29.2,27.9,00.0,37.9,31.2,25.3,0000.0,0017.08,0006.13,0004.42
2022-07-21 22:46:00,,0826.5,4.99,0.00,29.2,28.1,00.0,37.9,31.3,25.6,0000.0,0018.00,0006.10,0004.43
2022-07-21 22:47:00,,0826.5,5.00,0.00,29.3,27.7,00.0,37.9,31.3,25.9,0000.0,0018.01,0006.08,0004.44
2022-07-21 22:48:00,,0826.4,5.02,0.00,29.2,27.1,00.0,37.8,31.1,24.4,0000.0,0018.41,0006.07,0004.44
2022-07-21 22:49:00,,0826.4,4.99,0.00,29.2,26.9,00.0,37.8,31.1,25.6,0000.0,0018.98,0006.06,0004.43
2022-07-21 22:50:00,,0826.4,5.00,0.00,29.2,27.0,00.0,37.8,31.0,24.7,0000.0,0018.96,0006.10,0004.44
2022-07-21 22:51:00,,0826.4,5.01,0.00,29.1,27.2,00.0,37.8,31.0,24.4,0000.0,0018.64,0006.10,0004.44
2022-07-21 22:52:00,,0826.3,4.99,0.00,29.1,27.4,00.0,37.8,31.0,24.5,0000.0,0018.86,0006.07,0004.43
2022-07-21 22:53:00,,0826.3,5.00,0.00,29.2,27.6,00.0,37.8,31.1,23.0,0000.0,0019.78,0006.09,0004.43
2022-07-21 22:54:00,,0826.4,5.00,0.00,29.2,27.8,00.0,37.9,31.2,23.2,0000.0,0019.87,0006.14,0004.41
2022-07-21 22:55:00,,0826.4,4.99,0.00,29.2,28.0,00.0,37.9,31.2,24.3,0000.0,0018.60,0006.14,0004.39
2022-07-21 22:56:00,,0826.4,5.00,0.00,29.3,28.1,00.0,37.9,31.3,24.9,0000.0,0018.14,0006.11,0004.37
2022-07-21 22:57:00,,0826.4,5.01,0.00,29.3,27.9,00.0,37.9,31.3,24.7,0000.0,0017.97,0006.13,0004.36
2022-07-21 22:58:00,,0826.4,4.99,0.00,29.3,27.2,00.0,37.8,31.2,23.7,0000.0,0019.38,0006.18,0004.35
2022-07-21 22:59:00,,0826.4,5.00,0.00,29.3,27.0,00.0,37.8,31.1,23.2,0000.0,0017.93,0006.10,0004.33
